Location: Aranbee
(34.0885°N, 118.2342°W)
Time: 18:08:01
(UTC+00:00)

Vanguard 1 - All Passes

Search period start: 04 December 2020 00:00
Search period end: 14 December 2020 00:00
Orbit: 650 x 3833 km, 34.2° (Epoch: 03 December)

Date Brightness Start Highest point End Pass type
(mag) Time Alt. Az. Time Alt. Az. Time Alt. Az.
04 Dec - 09:57:36 10° SSW 10:01:25 29° SSE 10:05:53 10° E visible
04 Dec - 12:16:10 10° W 12:21:07 87° S 12:29:13 10° E visible
04 Dec - 14:35:26 10° W 14:42:12 81° SSW 14:55:03 10° ESE daylight
04 Dec - 16:55:18 10° W 17:04:33 47° SSW 17:20:57 10° SE daylight
04 Dec - 19:19:01 10° WSW 19:28:32 20° SW 19:41:15 10° S daylight
05 Dec - 10:17:54 10° SW 10:22:04 42° SSE 10:27:12 10° E visible
05 Dec - 12:36:57 10° W 12:42:04 88° N 12:50:36 10° E visible
05 Dec - 14:56:14 10° W 15:03:14 71° SSW 15:16:29 10° ESE daylight
05 Dec - 17:16:31 10° W 17:25:46 38° SSW 17:41:18 10° SSE daylight
05 Dec - 19:43:15 10° WSW 19:49:59 14° SW 19:58:00 10° SSW daylight
06 Dec - 08:21:35 10° S 08:23:22 12° SSE 08:25:07 10° SE night (unlit)
06 Dec - 10:38:28 10° WSW 10:42:47 59° SSE 10:48:22 10° E visible
06 Dec - 12:57:46 10° W 13:03:02 89° N 13:12:03 10° E visible
06 Dec - 15:17:05 10° W 15:24:17 61° SSW 15:37:45 10° ESE daylight
06 Dec - 17:38:02 10° W 17:47:02 29° SSW 18:01:09 10° SSE daylight
07 Dec - 08:40:41 10° SSW 08:44:05 20° SSE 08:47:21 10° ESE night (unlit)
07 Dec - 10:59:11 10° WSW 11:03:36 76° SSE 11:09:31 10° E visible
07 Dec - 13:18:34 10° W 13:24:00 86° S 13:33:29 10° E visible
07 Dec - 15:38:01 10° W 15:45:20 50° SSW 15:58:43 10° SE daylight
07 Dec - 18:00:04 10° WSW 18:08:21 22° SSW 18:20:18 10° SSE daylight
08 Dec - 09:00:43 10° SW 09:04:48 30° SSE 09:08:46 10° E night (unlit)
08 Dec - 11:19:59 10° W 11:24:28 88° S 11:30:41 10° E visible
08 Dec - 13:39:21 10° W 13:44:57 77° SSW 13:54:51 10° ESE visible
08 Dec - 15:59:04 10° W 16:06:28 40° SSW 16:19:20 10° SE daylight
08 Dec - 18:23:08 10° WSW 18:29:45 15° SSW 18:38:14 10° S daylight
09 Dec - 09:21:09 10° SW 09:25:32 44° SSE 09:29:56 10° E night (unlit)
09 Dec - 11:40:50 10° W 11:45:22 87° N 11:51:54 10° E visible
09 Dec - 14:00:10 10° W 14:05:55 65° SSW 14:16:07 10° ESE visible
09 Dec - 16:20:22 10° W 16:27:39 31° SSW 16:39:31 10° SSE daylight
10 Dec - 07:23:11 10° S 07:26:32 16° SSE 07:29:24 10° ESE night (unlit)
10 Dec - 09:41:49 10° WSW 09:46:18 61° SSE 09:50:58 10° E night (unlit)
10 Dec - 12:01:40 10° W 12:06:17 89° N 12:13:09 10° E visible
10 Dec - 14:21:01 10° W 14:26:53 53° SSW 14:37:11 10° SE visible
10 Dec - 16:42:02 10° WSW 16:48:52 23° SSW 16:59:06 10° SSE daylight
11 Dec - 07:42:52 10° SSW 07:47:23 24° SSE 07:51:03 10° E night (unlit)
11 Dec - 10:02:38 10° WSW 10:07:07 78° S 10:11:58 10° E visible
11 Dec - 12:22:29 10° W 12:27:11 83° S 12:34:24 10° ESE visible
11 Dec - 14:41:59 10° W 14:47:53 41° SSW 14:57:58 10° SE daylight
11 Dec - 17:04:30 10° WSW 17:10:10 16° SSW 17:17:44 10° S daylight
12 Dec - 08:03:10 10° SW 08:08:13 35° SSE 08:12:16 10° E night (unlit)
12 Dec - 10:23:32 10° W 10:27:59 89° S 10:33:00 10° E visible
12 Dec - 12:43:18 10° W 12:48:05 71° SSW 12:55:36 10° ESE visible
12 Dec - 15:03:07 10° W 15:08:57 31° SSW 15:18:22 10° SSE daylight
12 Dec - 17:30:04 10° SW 17:31:33 10° SSW 17:33:08 10° SSW daylight
13 Dec - 06:04:48 10° S 06:08:41 15° SSE 06:11:50 10° ESE night (unlit)
13 Dec - 08:23:47 10° SW 08:29:01 49° SSE 08:33:16 10° E night (unlit)
13 Dec - 10:44:27 10° W 10:48:52 87° N 10:54:04 10° E visible
13 Dec - 13:04:08 10° W 13:08:59 57° SSW 13:16:39 10° ESE visible
13 Dec - 15:24:34 10° WSW 15:30:04 23° SSW 15:38:16 10° SSE daylight
